Back to catalog

STARLINK-5243

AliveCommunicationsVLEO
NORAD 54167·PAYLOAD·🇺🇸 United States

Launched Oct 28, 2022 from Vandenberg Space Force Base

Loading…

Next Passes (next 24 hours)

TLE

FreshSource: CelesTrak SupGP

Epoch: Sep 14, 2026, 13:42 UTC

1 54167C 22141L   26257.57131944  .00677510  00000+0  29481-1 0  2576
2 54167  53.1607 244.8790 0001214  79.3687 215.7841 15.21383859    13

Track STARLINK-5243 in real time with AllMySat

Download on the App Store